Home   Weather   Acharnes   Past weeks

Flag for Greece Past Weather in Acharnes, Greece — Yesterday and Last 2 Weeks

Now
50 °F

Scattered clouds.


Feels Like: 46 °F
Forecast: 39 / 47 °F
Wind: 9 mph from North

Location: Elefsis Airport

Current Time: Jan 20, 2017 at 2:07:48 pm

Latest Report: Jan 20, 2017 at 1:20 pm


Visibility: N/A

Pressure: 30.39 "Hg

Humidity: 58%

Dew Point: 36 °F

Location of AcharnesLocation

Past Weather in Acharnes — Graph

°F

Acharnes Temperature Yesterday

Maximum temperature yesterday: 57 °F (at 10:50 am)
Minimum temperature yesterday: 46 °F (at 7:20 am)
Average temperature yesterday: 49 °F

High & Low Weather Summary for the Past Weeks

 TemperatureHumidityPressure
High64 °F (Jan 5, 1:50 pm)100% (Jan 8, 8:20 am)30.45 "Hg (Jan 8, 8:20 am)
Low28 °F (Jan 8, 2:20 am)23% (Jan 15, 12:20 pm)29.53 "Hg (Jan 6, 4:20 am)
Average44 °F68%29.94 "Hg
* Reported Jan 5 11:20 am — Jan 20 11:50 am, Acharnes, Weather by CustomWeather, © 2017

Note: Actual official high and low records may vary slightly from our data, if they occured in-between our weather recording intervals... More about our weather records

Advertising

Acharnes Weather History for the Previous 24 Hours

Scroll right to see more
 ConditionsComfort  
Time TempWeatherWind HumidityBarometerVisibility
11:50 am
Fri, Jan 20
50 °FPartly sunny.8 mph58%30.42 "HgN/A
11:20 am48 °FPartly sunny.8 mph62%30.45 "HgN/A
10:50 am48 °FScattered clouds.8 mph66%30.45 "HgN/A
10:20 am48 °FScattered clouds.6 mph62%30.45 "HgN/A
9:50 am48 °FScattered clouds.7 mph62%30.42 "HgN/A
9:20 am46 °FPartly sunny.8 mph71%30.42 "HgN/A
8:50 am46 °FPartly sunny.8 mph71%30.42 "HgN/A
8:20 am46 °FPartly sunny.7 mph71%30.42 "HgN/A
7:50 am46 °FPartly sunny.8 mph71%30.39 "HgN/A
7:20 am46 °FPassing clouds.8 mph71%30.39 "HgN/A
6:50 am45 °FPassing clouds.7 mph76%30.39 "HgN/A
6:20 am46 °FPassing clouds.9 mph71%30.39 "HgN/A
5:50 am46 °FPassing clouds.10 mph71%30.36 "HgN/A
5:20 am45 °FPassing clouds.9 mph76%30.36 "HgN/A
4:50 am46 °FPartly cloudy.12 mph71%30.36 "HgN/A
4:20 am46 °FPartly cloudy.9 mph71%30.36 "HgN/A
3:50 am46 °FPartly cloudy.12 mph71%30.36 "HgN/A
3:20 am46 °FPartly cloudy.9 mph71%30.36 "HgN/A
2:50 am46 °FPartly cloudy.9 mph71%30.36 "HgN/A
2:20 am46 °FPartly cloudy.7 mph71%30.36 "HgN/A
1:50 am46 °FPartly cloudy.7 mph71%30.36 "HgN/A
1:20 am46 °FPartly cloudy.12 mph71%30.33 "HgN/A
12:50 am46 °FPartly cloudy.12 mph71%30.33 "HgN/A
12:20 am46 °FPartly cloudy.9 mph71%30.33 "HgN/A
11:50 pm
Thu, Jan 19
46 °FPartly cloudy.7 mph71%30.33 "HgN/A
11:20 pm46 °FPassing clouds.7 mph71%30.33 "HgN/A
10:50 pm46 °FPassing clouds.7 mph71%30.33 "HgN/A
10:20 pm46 °FPassing clouds.7 mph71%30.33 "HgN/A
9:50 pm46 °FPassing clouds.12 mph71%30.30 "HgN/A
9:20 pm46 °FPassing clouds.12 mph71%30.30 "HgN/A
8:20 pm46 °FPassing clouds.16 mph71%30.27 "HgN/A
7:50 pm46 °FPassing clouds.14 mph71%30.27 "HgN/A
7:20 pm46 °FPassing clouds.14 mph71%30.27 "HgN/A
6:50 pm46 °FPassing clouds.12 mph71%30.27 "HgN/A
6:20 pm48 °FPassing clouds.14 mph66%30.24 "HgN/A
5:50 pm48 °FPassing clouds.16 mph66%30.24 "HgN/A
5:20 pm48 °FPassing clouds.12 mph66%30.21 "HgN/A
4:50 pm50 °FScattered clouds.12 mph62%30.21 "HgN/A
4:20 pm52 °FScattered clouds.14 mph58%30.18 "HgN/A
3:50 pm54 °FScattered clouds.12 mph58%30.18 "HgN/A
3:20 pm52 °FScattered clouds.14 mph58%30.18 "HgN/A
2:50 pm52 °FScattered clouds.15 mph62%30.18 "HgN/A
2:20 pm54 °FScattered clouds.14 mph63%30.18 "HgN/A
Weather by CustomWeather, © 2017

See weather overviewHow to use our weather pages